User: anonymous   Login
Location: Unspecified
(0.0000°N, 0.0000°E)
Time: 21:50:57
(UTC+00:00)
Language:

Gonets-D1 - Orbit

View from above orbital plane
View from above orbital plane
View from above satellite
View from above satellite

Ground track
Ground track

The orbit data is extracted from the following two-line orbital elements,

1 23787U 96009A   24108.46171833  .00000058  00000-0  25653-3 0  9996
2 23787  82.5730  85.2253 0012076  44.3125  77.3222 12.64075401299399
Epoch (UTC): 17 April 2024 11:04:52
Eccentricity: 0.0012076
inclination: 82.5730°
perigee height: 1397 km
apogee height: 1415 km
right ascension of ascending node: 85.2253°
argument of perigee: 44.3125°
revolutions per day: 12.64075401
mean anomaly at epoch: 77.3222°
orbit number at epoch: 29939

The dashed part of the orbit path shows where the satellite is in the earth's shadow,  

DLR